Regional Weather Roundup
Issued by NWS

Home | Current Version | Previous Version | Graphics & Text | Print | Product List | Glossary On
Versions: 1 2 3 4 5 6 7 8 9 10 11 12 13 14 15 16 17 18 19 20 21 22 23 24 25 26 27 28 29 30 31 32 33 34 35 36 37 38 39 40 41 42 43 44 45 46 47 48 49 50
000
ASUS43 KOAX 281110
RWRNE

WEATHER ROUNDUP FOR NEBRASKA
NATIONAL WEATHER SERVICE OMAHA NE
500 AM CST WED JAN 28 2015

NOTES: SATELLITE DATA IS BEING USED TO AUGMENT CLOUD COVER ABOVE
       12000 FEET.
       "FAIR" INDICATES FEW OR NO CLOUDS BELOW 12,000 FEET WITH NO
       SIGNIFICANT WEATHER AND/OR OBSTRUCTIONS TO VISIBILITY.

  * THESE STATIONS DO NOT REPORT WEATHER SUCH AS RAIN...SNOW OR FOG.

NEZ001>004-019>022-054>056-281200-
NEBRASKA PANHANDLE

CITY           SKY/WX    TMP DP  RH WIND       PRES   REMARKS
SCOTTSBLUFF      N/A    N/A N/A N/A MISG      29.93S
ALLIANCE       CLOUDY    45  33  63 W22       29.87F
CHADRON        MOCLDY    34  27  75 S3        29.87R
KIMBALL        CLOUDY    46  31  56 W23G29    29.94S
SIDNEY         CLOUDY    43  29  57 NW15      29.94F
$$

NEZ057>060-069>072-079>082-281200-
SOUTHWEST NEBRASKA

CITY           SKY/WX    TMP DP  RH WIND       PRES   REMARKS
NORTH PLATTE   CLEAR     28  24  85 NW9       29.85F WCI  19
IMPERIAL       PTCLDY    41  29  62 N13       29.88S
LEXINGTON      CLEAR     31  29  91 NW12G21   29.82S WCI  22
MCCOOK         CLEAR     31  26  82 W9        29.85R WCI  23
OGALLALA       MOCLDY    50  32  50 NW14      29.88F
$$

NEZ005>010-023>029-035>040-094-281200-
NORTH CENTRAL NEBRASKA

CITY           SKY/WX    TMP DP  RH WIND       PRES   REMARKS
VALENTINE      MOCLDY    37  30  75 SW15      29.78F WCI  28
AINSWORTH      PTCLDY    40  30  65 SW9       29.78F WCI  35
BROKEN BOW     CLEAR     33  28  81 N3        29.82F
O`NEILL        CLEAR     34  32  92 S8        29.79F WCI  27
ORD            CLEAR     25  22  88 NW3       29.81F
THEDFORD       PTCLDY    39  31  72 W6        29.82F WCI  35
$$

NEZ041-046>049-061>064-073>077-083>087-281200-
SOUTH CENTRAL NEBRASKA

CITY           SKY/WX    TMP DP  RH WIND       PRES   REMARKS
GRAND ISLAND   CLEAR     26  23  88 N3        29.83F
AURORA         CLEAR     28  26  90 E5        29.82F WCI  23
HASTINGS       CLEAR     26  22  84 N6        29.81F WCI  19
HEBRON         CLEAR     36  31  81 S3        29.83F
HOLDREGE       CLEAR     31  28  88 NW8       29.82R WCI  24
KEARNEY *      CLEAR     28  25  86 NW5       29.83F WCI  23
YORK           PTCLDY    28  27  93 E6        29.84F WCI  22
$$

NEZ011>018-030>034-042>045-281200-
NORTHEAST NEBRASKA

CITY           SKY/WX    TMP DP  RH WIND       PRES   REMARKS
NORFOLK        PTCLDY    31  28  89 SE7       29.83F WCI  24
ALBION         CLEAR     28  25  90 CALM      29.83F
BLAIR          PTCLDY    35  30  81 SE9       29.89F WCI  28
COLUMBUS *     CLEAR     32  25  74 E6        29.87F WCI  26
FREMONT        PTCLDY    36  31  82 E7        29.89F WCI  30
TEKAMAH        PTCLDY    32  28  85 SE8       29.91F WCI  25
WAYNE          PTCLDY    33  29  88 S5        29.86F WCI  28
$$

NEZ050>053-065>068-078-088>093-281200-
SOUTHEAST NEBRASKA

CITY           SKY/WX    TMP DP  RH WIND       PRES   REMARKS
LINCOLN        CLEAR     35  28  75 E7        29.88F WCI  29
OMAHA EPPLEY   PTCLDY    35  29  78 SE12      29.91F WCI  27
BEATRICE       CLEAR     34  28  79 E5        29.85F WCI  30
FALLS CITY     PTCLDY    35  28  75 E8        29.91F WCI  29
NEBRASKA CITY  MOCLDY    35  27  72 SE10      29.89F WCI  28
PLATTSMOUTH    PTCLDY    35  29  80 SE12      29.89F WCI  26
$$

NEZ044-045-051>053-067-281200-
OMAHA AREA

CITY           SKY/WX    TMP DP  RH WIND       PRES   REMARKS
OMAHA EPPLEY   PTCLDY    35  29  78 SE12      29.91F WCI  27
BLAIR          PTCLDY    35  30  81 SE9       29.89F WCI  28
FREMONT        PTCLDY    36  31  82 E7        29.89F WCI  30
MILLARD        PTCLDY    36  31  81 SE6       29.90F WCI  31
OFFUTT AFB     PTCLDY    34  29  83 E13       29.91F WCI  25
PLATTSMOUTH    PTCLDY    35  29  80 SE12      29.89F WCI  26
WAHOO          FAIR      29  26  88 SE7       29.88F WCI  22
$$



USA.gov is the U.S. government's official web portal to all federal, state and local government web resources and services.